This demonstration page uses our WeatherBlox Daily Observations layout. Learn more.

Left ArrowRight Arrow

39.12711, -84.51439

Hourly Observations for July 1, 2022

Temp ( °F °C ) Dew Point ( °F °C ) Humidity (%) Winds ( mph kmh ) Pressure ( in mb ) Visibility ( mi km ) Precip ( " mm )
12:53 am 00:53 Mostly Clear 73 22.8 67 19.4 81 81 Calm 30.04 1017 10 16 0.00 0.00
1:53 am 01:53 Clear 71 21.7 68 20 90 90 Calm 30.04 1017 10 16 0.00 0.00
2:53 am 02:53 Partly Cloudy 71 21.7 68 20 90 90 Calm 30.03 1017 10 16 0.00 0.00
3:53 am 03:53 Mostly Clear 71 21.7 68 20 90 90 Calm 30.03 1017 10 16 0.00 0.00
4:53 am 04:53 Partly Cloudy 72 22.2 68 20 87 87 Calm 30.03 1017 10 16 0.00 0.00
5:53 am 05:53 Mostly Clear 71 21.7 68 20 90 90 Calm 30.03 1017 10 16 0.00 0.00
6:53 am 06:53 Sunny 71 21.7 69 20.6 94 94 Calm 30.04 1017 9 14 0.00 0.00
7:53 am 07:53 Sunny 76 24.4 71 21.7 85 85 Calm 30.04 1017 10 16 0.00 0.00
8:53 am 08:53 Mostly Sunny 82 27.8 72 22.2 72 72 SW 5 7 30.04 1017 10 16 0.00 0.00
9:53 am 09:53 Mostly Sunny 85 29.4 73 22.8 68 68 SW 7 11 30.04 1017 10 16 0.00 0.00
10:53 am 10:53 Sunny 88 31.1 72 22.2 59 59 W 12 19 30.03 1017 10 16 0.00 0.00
11:53 am 11:53 Mostly Sunny 88 31.1 71 21.7 57 57 W 10 17 30.03 1017 10 16 0.00 0.00
12:53 pm 12:53 Mostly Sunny 89 31.7 72 22.2 57 57 WSW 10 17 30.01 1016 10 16 0.00 0.00
1:53 pm 13:53 Mostly Cloudy 90 32.2 70 21.1 52 52 WSW 14 22 29.99 1016 10 16 0.00 0.00
2:53 pm 14:53 Partly Cloudy 90 32.2 72 22.2 56 56 W 9 15 29.96 1015 10 16 0.00 0.00
3:53 pm 15:53 Partly Cloudy 89 31.7 71 21.7 55 55 W 8 13 29.95 1014 10 16 0.00 0.00
4:37 pm 16:37 Partly Cloudy with Nearby Thunderstorms 92 33.3 72 22.2 52 52 WSW 15 24 29.93 1013 10 16 0.00 0.00
4:53 pm 16:53 Sunny 89 31.7 71 21.7 55 55 SW 12 19 29.94 1014 10 16 0.00 0.00
5:53 pm 17:53 Sunny 90 32.2 70 21.1 52 52 W 14 22 29.93 1014 10 16 0.00 0.00
6:53 pm 18:53 Sunny 87 30.6 71 21.7 59 59 SW 8 13 29.93 1014 10 16 0.00 0.00
7:53 pm 19:53 Mostly Sunny 86 30 73 22.8 65 65 SW 7 11 29.93 1014 10 16 0.00 0.00
8:53 pm 20:53 Mostly Sunny 85 29.4 72 22.2 65 65 WSW 7 11 29.93 1014 10 16 0.00 0.00
9:53 pm 21:53 Clear 83 28.3 70 21.1 65 65 W 5 7 29.95 1014 10 16 0.00 0.00
10:53 pm 22:53 Clear 82 27.8 64 17.8 55 55 NNW 6 9 29.96 1015 10 16 0.00 0.00
11:53 pm 23:53 Clear 75 23.9 66 18.9 74 74 Calm 29.96 1015 10 16 0.00 0.00

Powered by AerisWeather